Time,TemperatureF,DewpointF,PressureIn,WindDirection,WindDirectionDegrees,WindSpeedMPH,WindSpeedGustMPH,Humidity,HourlyPrecipIn,Conditions,Clouds,dailyrainin,SoftwareType,DateUTC
2013-01-06 00:01:00,25.5,5.0,30.24,WSW,255,4.0,-999.0,41,-99.99,,,0.00,weatherlink.com 1.10,2013-01-06 07:01:00,
2013-01-06 00:14:00,26.3,4.0,30.23,West,271,5.0,-999.0,39,-99.99,,,0.00,weatherlink.com 1.10,2013-01-06 07:14:00,
2013-01-06 00:29:00,26.7,4.0,30.23,WSW,255,5.0,-999.0,37,-99.99,,,0.00,weatherlink.com 1.10,2013-01-06 07:29:00,
2013-01-06 00:44:00,25.7,4.0,30.23,West,264,4.0,-999.0,39,-99.99,,,0.00,weatherlink.com 1.10,2013-01-06 07:44:00,
2013-01-06 00:59:00,25.7,3.0,30.23,WSW,245,3.0,-999.0,38,-99.99,,,0.00,weatherlink.com 1.10,2013-01-06 07:59:00,
2013-01-06 01:14:00,21.8,3.0,30.23,SW,231,6.0,-999.0,45,-99.99,,,0.00,weatherlink.com 1.10,2013-01-06 08:14:00,
2013-01-06 01:29:00,22.5,3.0,30.23,WSW,244,3.0,-999.0,43,-99.99,,,0.00,weatherlink.com 1.10,2013-01-06 08:29:00,
2013-01-06 01:44:00,24.5,3.0,30.23,WSW,257,7.0,-999.0,39,-99.99,,,0.00,weatherlink.com 1.10,2013-01-06 08:44:00,
2013-01-06 01:59:00,26.1,2.0,30.22,West,264,5.0,-999.0,35,-99.99,,,0.00,weatherlink.com 1.10,2013-01-06 08:59:00,
2013-01-06 02:14:00,26.5,2.0,30.22,West,273,4.0,-999.0,34,-99.99,,,0.00,weatherlink.com 1.10,2013-01-06 09:14:00,
2013-01-06 02:29:00,25.7,1.0,30.22,West,273,1.0,-999.0,34,-99.99,,,0.00,weatherlink.com 1.10,2013-01-06 09:29:00,
2013-01-06 02:44:00,25.6,1.0,30.22,WSW,250,4.0,-999.0,34,-99.99,,,0.00,weatherlink.com 1.10,2013-01-06 09:44:00,
2013-01-06 02:59:00,26.0,-1.0,30.21,West,268,7.0,-999.0,31,-99.99,,,0.00,weatherlink.com 1.10,2013-01-06 09:59:00,
2013-01-06 03:14:00,27.3,-1.0,30.21,West,265,9.0,-999.0,29,-99.99,,,0.00,weatherlink.com 1.10,2013-01-06 10:14:00,
2013-01-06 03:29:00,27.2,-2.0,30.20,West,264,5.0,-999.0,28,-99.99,,,0.00,weatherlink.com 1.10,2013-01-06 10:29:00,
2013-01-06 03:44:00,27.4,-2.0,30.20,West,265,7.0,-999.0,28,-99.99,,,0.00,weatherlink.com 1.10,2013-01-06 10:44:00,
2013-01-06 03:58:00,27.3,-2.0,30.20,West,276,3.0,-999.0,28,-99.99,,,0.00,weatherlink.com 1.10,2013-01-06 10:58:00,
2013-01-06 04:14:00,26.9,-2.0,30.20,WNW,282,3.0,-999.0,28,-99.99,,,0.00,weatherlink.com 1.10,2013-01-06 11:14:00,
2013-01-06 04:29:00,26.7,-3.0,30.19,West,275,3.0,-999.0,28,-99.99,,,0.00,weatherlink.com 1.10,2013-01-06 11:29:00,
2013-01-06 04:44:00,26.2,-3.0,30.19,West,276,5.0,-999.0,28,-99.99,,,0.00,weatherlink.com 1.10,2013-01-06 11:44:00,
2013-01-06 04:59:00,25.3,-2.0,30.18,West,279,1.0,-999.0,31,-99.99,,,0.00,weatherlink.com 1.10,2013-01-06 11:59:00,
2013-01-06 05:14:00,22.0,-1.0,30.19,SW,223,5.0,-999.0,36,-99.99,,,0.00,weatherlink.com 1.10,2013-01-06 12:14:00,
2013-01-06 05:29:00,21.2,-2.0,30.18,SW,220,6.0,-999.0,37,-99.99,,,0.00,weatherlink.com 1.10,2013-01-06 12:29:00,
2013-01-06 05:44:00,20.6,-1.0,30.18,SW,229,4.0,-999.0,38,-99.99,,,0.00,weatherlink.com 1.10,2013-01-06 12:44:00,
2013-01-06 05:59:00,19.5,-1.0,30.18,WSW,240,1.0,-999.0,40,-99.99,,,0.00,weatherlink.com 1.10,2013-01-06 12:59:00,
2013-01-06 06:14:00,20.1,-1.0,30.18,West,267,2.0,-999.0,39,-99.99,,,0.00,weatherlink.com 1.10,2013-01-06 13:14:00,
2013-01-06 06:29:00,20.6,-1.0,30.18,West,275,3.0,-999.0,38,-99.99,,,0.00,weatherlink.com 1.10,2013-01-06 13:29:00,
2013-01-06 06:44:00,21.2,-2.0,30.18,West,275,0.0,-999.0,36,-99.99,,,0.00,weatherlink.com 1.10,2013-01-06 13:44:00,
2013-01-06 06:59:00,22.3,-4.0,30.17,WSW,242,3.0,-999.0,32,-99.99,,,0.00,weatherlink.com 1.10,2013-01-06 13:59:00,
2013-01-06 07:14:00,23.0,-5.0,30.17,West,263,2.0,-999.0,29,-99.99,,,0.00,weatherlink.com 1.10,2013-01-06 14:14:00,
2013-01-06 07:29:00,23.5,-3.0,30.16,WNW,292,4.0,-999.0,31,-99.99,,,0.00,weatherlink.com 1.10,2013-01-06 14:29:00,
2013-01-06 07:44:00,23.1,-4.0,30.17,NW,315,3.0,-999.0,31,-99.99,,,0.00,weatherlink.com 1.10,2013-01-06 14:44:00,
2013-01-06 07:59:00,24.7,-4.0,30.16,WNW,296,3.0,-999.0,29,-99.99,,,0.00,weatherlink.com 1.10,2013-01-06 14:59:00,
2013-01-06 08:14:00,26.5,-2.0,30.16,NW,321,2.0,-999.0,29,-99.99,,,0.00,weatherlink.com 1.10,2013-01-06 15:14:00,
2013-01-06 08:29:00,27.3,-3.0,30.16,NW,321,0.0,-999.0,27,-99.99,,,0.00,weatherlink.com 1.10,2013-01-06 15:29:00,
2013-01-06 08:44:00,28.4,-3.0,30.16,NW,321,0.0,-999.0,26,-99.99,,,0.00,weatherlink.com 1.10,2013-01-06 15:44:00,
2013-01-06 08:59:00,29.5,1.0,30.15,NW,321,0.0,-999.0,29,-99.99,,,0.00,weatherlink.com 1.10,2013-01-06 15:59:00,
2013-01-06 09:14:00,30.6,2.0,30.15,NNW,333,1.0,-999.0,30,-99.99,,,0.00,weatherlink.com 1.10,2013-01-06 16:14:00,
2013-01-06 09:29:00,31.6,3.0,30.15,East,86,1.0,-999.0,30,-99.99,,,0.00,weatherlink.com 1.10,2013-01-06 16:29:00,
2013-01-06 09:44:00,31.9,3.0,30.15,East,86,0.0,-999.0,29,-99.99,,,0.00,weatherlink.com 1.10,2013-01-06 16:44:00,
2013-01-06 09:59:00,32.7,1.0,30.15,SE,130,7.0,-999.0,26,-99.99,,,0.00,weatherlink.com 1.10,2013-01-06 16:59:00,
2013-01-06 10:14:00,31.5,11.0,30.15,SSE,149,3.0,-999.0,43,-99.99,,,0.00,weatherlink.com 1.10,2013-01-06 17:14:00,
2013-01-06 10:29:00,30.9,10.0,30.14,SSE,148,3.0,-999.0,41,-99.99,,,0.00,weatherlink.com 1.10,2013-01-06 17:29:00,
2013-01-06 10:44:00,31.1,9.0,30.14,SSE,150,1.0,-999.0,39,-99.99,,,0.00,weatherlink.com 1.10,2013-01-06 17:44:00,
2013-01-06 10:59:00,31.5,8.0,30.12,SSE,168,1.0,-999.0,37,-99.99,,,0.00,weatherlink.com 1.10,2013-01-06 17:59:00,
2013-01-06 11:14:00,32.2,7.0,30.11,SSE,161,0.0,-999.0,34,-99.99,,,0.00,weatherlink.com 1.10,2013-01-06 18:14:00,
2013-01-06 11:29:00,33.1,7.0,30.10,SSE,151,1.0,-999.0,33,-99.99,,,0.00,weatherlink.com 1.10,2013-01-06 18:29:00,
2013-01-06 11:44:00,34.5,7.0,30.09,SSE,160,0.0,-999.0,31,-99.99,,,0.00,weatherlink.com 1.10,2013-01-06 18:44:00,
2013-01-06 11:59:00,35.3,9.0,30.08,SE,137,1.0,-999.0,34,-99.99,,,0.00,weatherlink.com 1.10,2013-01-06 18:59:00,
2013-01-06 12:14:00,36.1,9.0,30.07,SSE,159,4.0,-999.0,33,-99.99,,,0.00,weatherlink.com 1.10,2013-01-06 19:14:00,
2013-01-06 12:29:00,36.9,9.0,30.06,SSE,155,2.0,-999.0,31,-99.99,,,0.00,weatherlink.com 1.10,2013-01-06 19:29:00,
2013-01-06 13:14:00,38.8,7.0,30.04,SSE,150,0.0,-999.0,27,-99.99,,,0.00,weatherlink.com 1.10,2013-01-06 20:14:00,
2013-01-06 13:29:00,39.6,11.0,30.03,SSE,152,2.0,-999.0,31,-99.99,,,0.00,weatherlink.com 1.10,2013-01-06 20:29:00,
2013-01-06 13:44:00,40.1,8.0,30.03,SSE,152,2.0,-999.0,27,-99.99,,,0.00,weatherlink.com 1.10,2013-01-06 20:44:00,
2013-01-06 13:59:00,40.4,11.0,30.02,SSE,152,0.0,-999.0,30,-99.99,,,0.00,weatherlink.com 1.10,2013-01-06 20:59:00,
2013-01-06 14:14:00,40.2,11.0,30.02,NNE,13,0.0,-999.0,30,-99.99,,,0.00,weatherlink.com 1.10,2013-01-06 21:14:00,
2013-01-06 14:29:00,40.3,16.0,30.02,SE,125,1.0,-999.0,37,-99.99,,,0.00,weatherlink.com 1.10,2013-01-06 21:29:00,
2013-01-06 14:44:00,41.0,18.0,30.01,SSE,150,1.0,-999.0,39,-99.99,,,0.00,weatherlink.com 1.10,2013-01-06 21:44:00,
2013-01-06 14:59:00,41.2,13.0,30.01,SSE,150,1.0,-999.0,32,-99.99,,,0.00,weatherlink.com 1.10,2013-01-06 21:59:00,
2013-01-06 15:14:00,40.6,14.0,30.01,NE,46,0.0,-999.0,34,-99.99,,,0.00,weatherlink.com 1.10,2013-01-06 22:14:00,
2013-01-06 15:29:00,39.8,15.0,30.01,ENE,62,3.0,-999.0,36,-99.99,,,0.00,weatherlink.com 1.10,2013-01-06 22:29:00,
2013-01-06 15:44:00,38.5,17.0,30.01,East,97,0.0,-999.0,41,-99.99,,,0.00,weatherlink.com 1.10,2013-01-06 22:44:00,
2013-01-06 15:59:00,37.6,16.0,30.01,East,101,0.0,-999.0,42,-99.99,,,0.00,weatherlink.com 1.10,2013-01-06 22:59:00,
2013-01-06 16:14:00,37.0,16.0,30.00,East,98,0.0,-999.0,42,-99.99,,,0.00,weatherlink.com 1.10,2013-01-06 23:14:00,
2013-01-06 16:29:00,36.1,15.0,30.00,North,5,2.0,-999.0,43,-99.99,,,0.00,weatherlink.com 1.10,2013-01-06 23:29:00,
2013-01-06 16:44:00,35.4,15.0,29.99,North,360,0.0,-999.0,43,-99.99,,,0.00,weatherlink.com 1.10,2013-01-06 23:44:00,
2013-01-06 16:59:00,34.4,12.0,29.99,North,355,0.0,-999.0,40,-99.99,,,0.00,weatherlink.com 1.10,2013-01-06 23:59:00,
2013-01-06 17:14:00,33.8,13.0,30.00,NW,306,2.0,-999.0,42,-99.99,,,0.00,weatherlink.com 1.10,2013-01-07 00:14:00,
2013-01-06 17:29:00,33.5,12.0,30.00,WSW,250,4.0,-999.0,41,-99.99,,,0.00,weatherlink.com 1.10,2013-01-07 00:29:00,
2013-01-06 17:44:00,32.9,11.0,29.99,WSW,245,1.0,-999.0,40,-99.99,,,0.00,weatherlink.com 1.10,2013-01-07 00:44:00,
2013-01-06 17:59:00,31.9,9.0,29.99,WSW,257,3.0,-999.0,39,-99.99,,,0.00,weatherlink.com 1.10,2013-01-07 00:59:00,
2013-01-06 18:14:00,32.0,10.0,29.99,WNW,283,4.0,-999.0,40,-99.99,,,0.00,weatherlink.com 1.10,2013-01-07 01:14:00,
2013-01-06 18:29:00,31.6,9.0,29.99,WSW,256,4.0,-999.0,39,-99.99,,,0.00,weatherlink.com 1.10,2013-01-07 01:29:00,
2013-01-06 18:44:00,31.9,8.0,29.99,WNW,283,5.0,-999.0,37,-99.99,,,0.00,weatherlink.com 1.10,2013-01-07 01:44:00,
2013-01-06 18:59:00,33.1,8.0,29.99,WSW,244,3.0,-999.0,35,-99.99,,,0.00,weatherlink.com 1.10,2013-01-07 01:59:00,
2013-01-06 19:14:00,33.6,7.0,29.98,WNW,290,4.0,-999.0,33,-99.99,,,0.00,weatherlink.com 1.10,2013-01-07 02:14:00,
2013-01-06 19:29:00,34.2,7.0,29.99,North,5,2.0,-999.0,32,-99.99,,,0.00,weatherlink.com 1.10,2013-01-07 02:29:00,
2013-01-06 19:44:00,34.3,7.0,29.99,WNW,292,4.0,-999.0,32,-99.99,,,0.00,weatherlink.com 1.10,2013-01-07 02:44:00,
2013-01-06 19:59:00,34.3,6.0,29.98,West,272,3.0,-999.0,30,-99.99,,,0.00,weatherlink.com 1.10,2013-01-07 02:59:00,
2013-01-06 20:14:00,34.0,6.0,29.98,SW,216,4.0,-999.0,31,-99.99,,,0.00,weatherlink.com 1.10,2013-01-07 03:14:00,
2013-01-06 20:29:00,33.8,8.0,29.98,WNW,287,4.0,-999.0,34,-99.99,,,0.00,weatherlink.com 1.10,2013-01-07 03:29:00,
2013-01-06 20:44:00,35.6,4.0,29.97,West,277,3.0,-999.0,26,-99.99,,,0.00,weatherlink.com 1.10,2013-01-07 03:44:00,
2013-01-06 20:59:00,36.5,7.0,29.97,WNW,298,2.0,-999.0,29,-99.99,,,0.00,weatherlink.com 1.10,2013-01-07 03:59:00,
2013-01-06 21:14:00,35.9,9.0,29.98,NNE,14,2.0,-999.0,33,-99.99,,,0.00,weatherlink.com 1.10,2013-01-07 04:14:00,
2013-01-06 21:29:00,35.1,7.0,29.98,NW,323,5.0,-999.0,31,-99.99,,,0.00,weatherlink.com 1.10,2013-01-07 04:29:00,
2013-01-06 21:44:00,35.7,9.0,29.98,WSW,245,5.0,-999.0,33,-99.99,,,0.00,weatherlink.com 1.10,2013-01-07 04:44:00,
2013-01-06 21:59:00,36.1,8.0,29.98,NW,309,4.0,-999.0,31,-99.99,,,0.00,weatherlink.com 1.10,2013-01-07 04:59:00,
2013-01-06 22:16:00,35.8,7.0,29.98,WSW,256,5.0,-999.0,30,-99.99,,,0.00,weatherlink.com 1.10,2013-01-07 05:16:00,
2013-01-06 22:31:00,36.8,7.0,29.97,West,277,6.0,-999.0,29,-99.99,,,0.00,weatherlink.com 1.10,2013-01-07 05:31:00,
2013-01-06 22:45:00,36.8,9.0,29.97,WSW,257,2.0,-999.0,32,-99.99,,,0.00,weatherlink.com 1.10,2013-01-07 05:45:00,
2013-01-06 23:01:00,36.0,12.0,29.97,WSW,237,3.0,-999.0,37,-99.99,,,0.00,weatherlink.com 1.10,2013-01-07 06:01:00,
2013-01-06 23:15:00,36.5,7.0,29.97,SW,225,1.0,-999.0,29,-99.99,,,0.00,weatherlink.com 1.10,2013-01-07 06:15:00,
2013-01-06 23:31:00,35.8,10.0,29.97,NNW,344,1.0,-999.0,34,-99.99,,,0.00,weatherlink.com 1.10,2013-01-07 06:31:00,
2013-01-06 23:45:00,35.5,6.0,29.97,NW,319,0.0,-999.0,29,-99.99,,,0.00,weatherlink.com 1.10,2013-01-07 06:45:00,